Home > Weather > Fairbanks > Past weeks

Flag for USA Past Weather in Fairbanks, Alaska, USA — Yesterday and Last 2 Weeks

Now
57 °F

More clouds than sun.


Feels Like: 55 °F
Forecast: 53 / 55 °F
Wind: 9 mph from Southwest

Location: Wainwright U. S. Army Airfield

Current Time: Jul 29, 2016 at 8:04:53 AM

Latest Report: Jul 29, 2016 at 6:58 AM


Visibility: 7 mi

Pressure: 29.89 "Hg

Humidity: 87%

Dew Point: 53 °F

Location of FairbanksLocation

Past Weather in Fairbanks — Graph

°F

Fairbanks Temperature Yesterday

Maximum temperature yesterday: 70 °F (at 3:58 PM)
Minimum temperature yesterday: 52 °F (at 3:58 AM)
Average temperature yesterday: 59 °F

High & Low Weather Summary for the Past Weeks

 TemperatureHumidityPressure
High88 °F (Jul 14, 2:58 PM)100% (Jul 20, 10:48 PM)30.23 "Hg (Jul 20, 10:48 PM)
Low48 °F (Jul 23, 4:58 AM)32% (Jul 14, 3:58 PM)29.61 "Hg (Jul 23, 4:58 PM)
Average61 °F76%29.90 "Hg
* Reported Jul 14 6:58 AM — Jul 29 6:58 AM, Fairbanks, Weather by CustomWeather, © 2016

Note: Actual official high and low records may vary slightly from our data, if they occured in-between our weather recording intervals... More about our weather records

Advertising

Fairbanks Weather History for the Previous 24 Hours

Scroll right to see more
 ConditionsComfort  
Time TempWeatherWind HumidityBarometerVisibility
6:58 AM
Fri, Jul 29
57 °FMore clouds than sun.9 mph87%29.89 "Hg7 mi
6:03 AM57 °FLight rain. Fog.7 mph88%29.88 "Hg2 mi
4:58 AM58 °FMostly cloudy.8 mph83%29.86 "Hg8 mi
3:58 AM55 °FMostly cloudy.3 mph95%29.86 "Hg10 mi
2:58 AM55 °FOvercast.3 mph95%29.86 "Hg9 mi
1:58 AM57 °FPassing clouds.3 mph92%29.87 "Hg10 mi
12:58 AM57 °FPassing clouds.3 mph93%29.87 "Hg10 mi
11:58 PM
Thu, Jul 28
59 °FMostly cloudy.6 mph88%29.86 "Hg10 mi
10:58 PM60 °FMostly cloudy.6 mph86%29.85 "Hg10 mi
9:58 PM61 °FOvercast.5 mph90%29.85 "Hg10 mi
8:58 PM61 °FPartly sunny.1 mph91%29.84 "Hg8 mi
7:58 PM61 °FPartly sunny.3 mph86%29.83 "Hg10 mi
6:58 PM61 °FMore clouds than sun.6 mph85%29.83 "Hg10 mi
4:58 PM66 °FThundershowers. Cloudy.2 mph73%29.79 "Hg9 mi
3:58 PM70 °FBroken clouds.7 mph56%29.78 "Hg10 mi
8:58 AM57 °FOvercast.3 mph82%29.78 "Hg10 mi
Weather by CustomWeather, © 2016

See weather overviewHow to use our weather pages